Temp
19 20 21 22 23 23 24 25 25 22 20 22 23 24 22 18 19 19 19 19 18 18 15 14 14 15 16 18 18 18 17 17 16 16 16 16 16 15 15 15 15 15 15 15
18 19 22 23 21 21 22 24 22 19 19 21 21 23 20 18 16 16 16 17 16 15 16 14 13 13 15 17 17 18 17 17 16 16 16 16 16 16 16 15 15 15 14 15
20 20 18 20 19 21 21 23 22 23 19 19 21 23 20 17 16 15 14 13 13 13 14 13 13 12 13 15 16 17 17 17 16 16 15 15 15 15 14 14 14 15 14 14
21 16 18 19 20 22 21 21 21 19 22 23 19 25 23 20 18 16 14 14 13 13 12 12 11 11 10 10 13 15 16 16 16 15 15 16 17 17 15 15 14 14 15 15
19 16 18 19 20 21 21 20 20 20 20 21 20 22 26 18 19 18 15 13 13 12 11 11 9 8 7 9 10 13 14 14 14 14 15 15 16 15 14 13 14 14 14 14
17 16 19 20 17 20 17 19 18 18 19 19 23 23 26 22 22 20 15 13 12 12 11 10 8 7 7 7 9 10 12 12 12 13 13 14 14 13 13 13 13 12 13 13
16 16 16 17 16 17 19 21 17 18 17 20 16 19 25 20 17 18 14 12 11 11 11 11 10 8 7 7 7 9 11 10 11 12 12 12 12 12 11 11 11 11 11 11
17 16 16 17 19 18 19 23 19 18 18 21 15 19 23 13 13 15 13 12 10 10 10 10 9 9 8 7 7 7 7 8 9 10 10 10 10 10 9 9 9 9 9 9
19 18 14 15 16 19 18 17 20 18 15 18 19 19 16 11 11 11 11 10 10 10 9 9 8 8 8 7 7 8 7 7 7 8 8 8 8 8 8 8 8 8 8 8
20 18 14 14 16 16 18 19 18 19 17 20 18 18 22 12 11 11 10 10 9 9 8 8 8 7 7 6 6 6 7 7 6 7 7 7 6 6 7 7 7 7 7 7
19 20 14 15 16 18 16 18 18 21 20 21 22 22 19 17 13 11 10 10 9 9 8 8 7 6 6 6 6 6 6 6 5 6 6 6 5 6 6 6 6 6 6 6
18 17 16 16 14 14 19 20 20 20 17 17 19 23 13 12 14 12 10 9 9 9 8 8 7 6 6 6 6 5 5 5 5 5 5 5 5 5 5 5 5 5 5 5
16 17 14 14 15 13 15 16 20 19 19 19 20 23 11 11 12 11 10 9 8 8 7 7 6 7 6 5 5 4 4 4 4 4 4 4 4 4 4 4 4 4 5 5
17 18 20 19 20 18 15 16 16 19 20 21 20 23 13 12 11 11 10 9 8 7 7 7 6 6 5 5 4 4 3 3 3 3 3 3 3 3 3 4 4 4 4 3
18 18 19 21 18 17 17 16 16 17 20 20 22 20 21 14 12 11 10 9 8 7 7 6 6 5 4 4 3 3 2 2 2 2 2 1 1 2 2 2 2 2 2 2
14 13 15 15 15 16 16 17 17 18 20 21 20 18 12 15 12 11 9 8 8 7 7 6 6 5 4 3 3 2 1 1 1 1 1 1 1 1 1 1 1 1 2 2
10 10 12 15 13 13 14 16 17 18 19 19 18 15 11 10 10 10 9 9 8 7 6 5 5 4 3 2 2 1 1 0 0 0 -0 -0 0 0 0 0 0 1 1 1
10 11 11 11 11 13 17 11 15 17 16 16 15 13 12 12 10 10 9 9 8 7 6 5 4 2 2 1 0 0 -0 -0 -0 -0 -1 -1 -1 -1 -0 -0 -0 -0 -0 -0
13 10 9 12 14 14 13 10 12 14 15 14 15 11 10 9 9 9 9 8 8 6 5 4 3 1 1 0 -0 -0 -1 -1 -1 -1 -1 -2 -1 -1 -1 -1 -1 -1 -1 -1
10 10 11 9 14 14 18 11 10 14 16 12 12 9 7 9 10 9 8 7 6 4 3 2 1 0 -0 -1 -1 -1 -1 -1 -2 -2 -2 -2 -2 -2 -2 -2 -2 -2 -2 -1
11 11 13 12 13 12 10 8 9 15 17 11 11 9 8 11 11 8 6 5 4 3 1 0 -0 -0 -1 -2 -1 -1 -2 -2 -3 -2 -3 -3 -3 -3 -2 -2 -2 -2 -2 -2
12 12 12 11 13 13 8 8 12 10 7 9 9 9 8 5 5 5 4 3 2 1 0 -1 -1 -2 -2 -2 -2 -2 -3 -3 -3 -3 -3 -3 -3 -3 -3 -3 -3 -2 -2 -2
12 11 12 12 13 5 5 6 6 7 8 7 7 5 4 4 3 3 3 3 2 0 -1 -1 -2 -3 -4 -3 -3 -3 -4 -4 -4 -4 -3 -3 -4 -4 -3 -3 -3 -3 -2 -2
5 5 8 7 3 3 3 5 6 6 6 5 5 4 4 3 3 2 1 0 -1 -2 -3 -4 -3 -3 -4 -4 -4 -4 -5 -4 -4 -4 -4 -4 -4 -4 -4 -4 -4 -3 -3 -2
3 3 5 2 1 3 2 3 4 4 5 4 4 4 3 2 1 0 -1 -2 -3 -4 -4 -3 -3 -3 -4 -5 -5 -5 -5 -5 -5 -5 -5 -4 -4 -4 -4 -4 -4 -4 -4 -4
-2 -0 6 7 4 5 1 1 3 3 2 3 2 2 2 1 -1 -2 -3 -3 -3 -3 -4 -4 -4 -4 -5 -6 -5 -5 -5 -5 -6 -6 -5 -5 -5 -5 -5 -5 -5 -5 -5 -5
Height
770 771 766 764 767 768 768 771 777 787 793 791 789 785 792 802 802 802 802 802 804 805 809 810 810 810 811 814 817 820 824 828 832 835 838 841 843 845 846 848 849 851 852 853
772 765 759 761 771 775 776 776 784 795 797 793 794 789 795 802 806 808 807 806 808 808 808 810 810 809 809 811 814 817 821 825 829 833 836 839 842 844 846 846 847 849 851 852
754 755 767 768 775 776 777 773 783 780 796 798 795 788 796 804 807 810 811 812 811 812 810 810 810 809 809 810 812 814 818 822 827 831 834 837 839 842 844 845 847 849 850 851
752 764 762 767 771 769 779 778 779 792 786 790 798 784 781 789 798 804 808 809 810 811 812 812 811 810 810 809 810 813 817 821 824 828 831 835 838 840 843 846 847 848 849 850
753 763 763 766 762 765 773 779 784 791 795 792 797 795 762 795 792 793 802 808 811 813 813 813 814 813 812 810 809 811 815 819 824 827 831 834 837 840 842 844 846 847 848 848
756 759 757 754 768 763 781 784 793 800 798 807 778 782 760 777 770 780 799 806 812 813 815 815 815 814 813 812 811 812 814 817 821 826 830 833 836 838 841 843 845 846 847 848
758 760 762 760 772 780 773 772 807 813 816 797 810 797 758 773 781 781 796 806 811 814 814 816 816 816 815 814 814 815 817 819 822 824 828 832 835 838 840 843 845 846 847 848
750 767 761 755 751 763 767 754 778 795 803 785 814 790 755 790 794 791 800 807 814 816 817 819 820 820 820 819 819 820 820 823 825 827 829 832 835 838 841 844 846 846 846 846
736 747 760 761 757 751 768 774 764 784 806 794 784 780 781 796 800 801 805 810 814 818 820 822 823 823 824 824 823 824 825 827 830 831 834 837 839 841 844 845 845 846 846 847
720 744 762 762 757 761 754 755 774 773 791 783 786 783 752 786 790 798 804 806 814 819 822 824 826 827 828 828 828 828 829 831 833 835 837 839 841 843 845 846 846 846 847 848
720 722 763 762 753 746 761 757 757 750 760 759 759 755 745 756 772 784 796 804 811 817 822 825 827 830 831 832 833 833 834 835 836 838 839 841 841 842 843 846 848 847 847 846
718 731 745 743 757 755 737 737 736 744 769 767 759 739 762 765 765 781 795 804 810 814 818 824 828 831 833 833 836 837 837 838 840 841 842 841 844 845 844 844 845 846 846 846
713 723 747 758 755 757 749 747 734 740 746 752 753 734 770 772 770 780 790 802 809 815 820 824 828 831 833 835 837 839 840 840 840 841 843 844 844 846 846 845 845 845 845 844
694 702 702 710 704 723 743 741 744 737 741 726 734 724 760 767 771 778 785 797 806 814 820 823 828 832 834 837 839 840 842 842 843 844 844 844 845 847 848 847 846 845 844 844
695 699 698 692 707 716 719 727 736 737 720 729 717 732 727 750 758 768 781 794 804 811 818 823 827 832 836 838 840 843 845 844 844 844 844 845 846 847 848 848 847 845 843 841
703 714 708 717 719 717 720 720 722 717 714 716 721 731 747 745 762 772 780 789 798 808 816 823 828 832 835 838 841 843 845 846 846 845 845 846 848 848 848 847 845 842 839 838
711 719 718 713 723 728 728 714 714 713 710 711 725 730 748 757 761 762 771 781 791 802 812 820 827 831 834 838 841 843 845 845 846 846 847 847 848 848 846 844 842 840 838 836
708 709 720 729 732 728 697 723 711 708 713 715 721 730 734 739 751 763 773 779 789 800 810 818 826 831 834 836 840 843 845 846 846 847 848 849 848 846 845 843 841 839 837 835
696 714 731 719 713 709 711 724 717 712 709 714 714 733 743 750 760 769 774 781 789 801 811 818 825 831 834 837 840 842 846 847 848 848 849 848 846 845 843 841 840 839 837 835
705 709 707 732 703 706 679 707 714 707 702 708 717 734 744 748 749 754 770 783 793 803 812 819 827 832 836 838 840 843 845 846 848 848 847 847 847 846 844 842 840 837 835 832
701 703 697 701 696 699 710 716 717 706 691 705 710 724 735 732 735 750 772 786 793 803 813 822 828 833 837 840 842 843 845 846 846 846 847 846 845 843 842 840 838 835 831 829
682 692 695 703 699 694 714 720 705 710 718 715 721 729 737 749 755 763 775 785 796 805 815 823 827 834 838 841 843 844 845 846 846 846 847 846 845 843 840 838 836 833 830 827
683 682 684 689 683 720 723 720 719 719 717 724 729 740 744 755 764 769 778 788 798 807 816 823 829 835 839 841 842 844 846 846 846 846 845 843 842 841 840 837 835 831 828 826
709 711 702 713 730 730 730 726 722 723 726 733 737 745 752 758 771 775 788 800 807 813 817 824 830 834 838 841 842 844 845 845 844 844 843 841 839 837 836 833 832 830 826 822
723 720 712 729 736 733 737 733 731 732 735 741 750 754 759 767 778 781 795 805 812 819 824 827 830 833 837 840 842 841 843 842 842 841 840 839 837 836 834 831 828 824 822 819
744 736 712 702 720 719 740 743 740 740 745 749 755 762 772 779 785 793 803 811 817 822 826 830 833 835 838 839 840 841 841 841 840 839 838 837 835 833 831 826 823 821 815 812
Wind_Speed
6 10 18 22 18 3 10 13 11 3 6 8 13 8 10 2 2 2 1 1 1 2 3 3 3 6 14 17 19 20 20 19 19 17 15 12 11 10 9 9 9 8 7 7
7 18 15 14 13 6 9 12 7 4 4 3 5 11 5 2 2 1 1 2 3 1 2 4 5 3 6 17 19 19 20 20 20 16 14 10 11 8 7 7 7 7 6 6
15 6 13 12 11 12 7 12 10 4 7 2 3 7 7 4 5 3 3 2 3 3 3 4 5 5 2 6 16 18 19 19 19 16 13 10 9 6 6 5 4 4 4 5
11 4 17 14 16 17 14 6 9 12 11 5 3 6 7 9 8 6 4 2 3 3 4 4 5 7 6 3 6 12 14 15 16 17 14 13 9 8 5 5 5 3 1 1
8 11 18 18 15 18 6 10 9 6 4 2 6 4 6 5 11 12 9 5 3 4 4 6 8 7 7 8 9 10 12 12 11 13 12 12 8 8 8 6 6 6 3 2
3 1 7 9 4 15 19 12 9 5 2 3 11 9 8 8 8 15 11 8 6 5 6 8 9 10 11 12 15 16 18 17 14 12 10 9 9 9 9 6 4 3 2 2
5 5 2 8 12 12 7 17 4 4 4 6 3 7 11 6 3 9 15 11 8 7 7 8 9 12 13 15 16 20 21 20 18 18 16 14 12 12 10 7 5 5 5 6
13 8 10 7 6 12 18 16 6 8 6 7 3 8 4 2 2 8 12 11 10 8 7 9 11 12 14 15 16 18 21 21 20 21 20 18 16 14 11 9 7 7 7 8
14 8 2 1 3 12 9 9 3 7 2 3 6 6 4 6 7 12 13 12 11 10 9 10 12 13 14 16 17 18 19 19 18 18 17 17 15 14 12 11 10 10 10 9
10 7 4 2 3 3 6 13 5 3 9 6 6 5 6 12 16 15 15 15 12 10 11 10 12 14 14 15 17 18 19 20 18 18 17 17 16 15 13 12 12 11 9 9
9 5 7 6 9 14 5 7 4 4 4 8 7 6 4 12 19 21 18 16 16 14 12 11 14 14 14 15 15 17 17 18 18 17 16 16 15 14 13 12 10 10 9 10
8 5 7 15 2 4 7 11 18 8 7 2 1 5 2 2 16 19 19 17 16 15 14 13 15 15 15 15 15 15 15 16 15 14 14 15 13 12 12 11 10 10 9 9
12 7 7 4 4 3 7 5 13 3 2 11 9 7 1 4 14 18 21 18 17 16 15 13 15 15 14 14 14 14 13 14 13 13 13 12 13 11 10 9 9 9 10 10
20 8 14 13 11 11 11 13 11 13 9 12 12 11 7 11 16 19 21 21 19 17 16 14 13 14 14 13 13 12 12 11 11 11 12 12 11 10 9 9 9 9 9 9
11 14 16 19 4 10 9 19 19 17 23 13 19 14 10 18 21 23 20 21 20 19 17 15 13 15 14 13 12 11 10 10 9 11 12 12 10 9 8 9 8 8 10 12
4 3 8 7 6 8 7 15 22 27 26 22 12 8 1 10 14 20 22 23 22 19 18 16 15 17 15 13 12 11 10 9 9 11 11 9 8 8 8 8 9 11 12 14
9 7 5 11 6 4 4 17 22 20 21 20 16 7 13 12 19 23 24 23 23 21 19 17 16 17 15 13 11 11 9 9 9 9 8 8 7 6 8 10 12 13 15 15
6 8 2 4 6 8 7 3 7 17 11 13 4 10 18 15 13 16 20 22 22 21 20 17 19 17 15 14 12 10 9 8 8 8 7 6 7 9 10 11 12 14 15 15
7 5 3 5 8 1 4 6 8 12 12 15 13 12 12 15 16 12 17 20 20 20 22 21 19 17 15 13 12 11 9 8 7 7 6 8 9 10 11 12 13 13 15 15
2 3 4 5 10 10 10 7 4 3 8 15 14 18 21 17 9 9 19 18 20 25 23 23 19 16 14 11 11 10 9 7 6 5 7 8 9 9 10 11 12 13 13 15
6 7 10 6 3 4 2 6 4 10 4 16 16 20 20 10 1 21 20 21 28 27 25 21 17 14 12 10 9 9 7 6 5 5 5 5 6 8 8 11 11 14 16 16
9 9 5 2 4 12 7 5 7 1 4 10 12 15 14 15 21 23 21 20 25 25 23 19 18 14 10 9 7 7 6 4 4 4 4 5 7 9 9 12 14 15 15 17
5 2 7 5 4 2 4 4 2 2 9 8 13 15 19 19 19 21 19 20 24 25 22 17 17 14 9 8 6 5 2 3 4 5 6 7 9 10 10 12 14 15 15 16
2 3 3 7 1 3 5 6 7 7 9 13 18 19 20 22 20 21 17 15 19 18 18 16 16 13 9 6 5 4 1 3 5 6 7 8 9 11 10 11 11 13 15 17
2 4 5 4 4 7 7 7 11 15 17 17 16 17 19 21 18 18 15 17 18 16 14 13 12 11 9 6 4 2 2 4 5 6 7 8 9 10 12 12 13 14 16 16
5 2 2 1 10 6 6 6 13 18 17 17 20 18 16 19 16 19 15 18 18 17 13 11 9 8 6 4 2 1 4 6 7 7 7 9 10 12 13 15 17 15 18 18
Wind_Direction
182 190 202 191 197 200 191 203 195 162 155 188 207 200 178 119 141 122 67 82 131 171 340 341 311 248 215 207 202 198 194 192 187 186 185 190 195 198 203 207 208 207 214 220
161 213 200 187 181 157 176 186 173 106 121 223 202 224 191 158 114 54 3 10 359 326 354 3 359 346 221 208 203 198 198 193 191 189 187 187 184 196 197 198 201 207 214 230
187 173 152 173 180 184 194 202 181 167 141 99 172 241 202 178 159 138 92 68 40 14 358 10 18 25 41 200 205 199 196 195 193 190 182 171 168 156 176 181 180 209 225 251
212 142 171 176 191 192 203 195 153 144 165 205 226 229 213 191 193 194 166 144 87 68 61 46 41 47 46 44 187 195 192 190 190 189 188 187 187 173 153 144 153 156 165 298
185 164 172 181 195 185 186 142 130 144 135 183 184 239 146 169 214 204 180 155 123 87 76 70 62 60 55 83 105 137 158 167 178 185 191 188 176 140 132 129 143 143 156 189
140 98 180 185 129 181 138 115 76 65 86 248 216 224 212 189 215 178 166 157 138 113 96 86 82 81 73 86 103 109 125 126 138 143 152 167 155 147 139 135 135 112 87 60
149 154 134 143 101 139 177 154 129 172 192 234 338 219 240 158 142 194 168 157 145 131 115 101 92 84 80 83 96 104 112 106 117 130 134 134 136 137 127 114 90 62 41 21
178 190 184 174 181 173 181 184 164 182 186 205 148 224 223 65 73 145 150 146 140 133 119 101 92 89 88 87 88 94 99 99 103 109 111 114 115 111 97 79 74 61 49 27
188 173 105 201 149 166 173 208 97 105 78 172 185 257 214 149 141 152 151 153 147 137 124 113 105 99 96 94 93 98 99 97 95 96 96 90 87 86 84 77 72 61 49 29
183 168 219 113 133 69 203 146 154 184 166 218 197 260 241 198 183 175 170 164 153 142 136 125 113 107 101 99 99 99 98 97 96 94 92 90 86 82 77 74 67 60 47 32
172 218 158 160 214 171 148 185 200 195 203 207 217 225 198 200 189 180 174 166 159 153 144 132 121 114 109 104 101 100 97 97 95 95 95 93 91 88 81 70 59 50 38 25
178 117 162 195 52 310 231 210 190 198 186 212 255 218 150 126 181 172 168 166 161 157 149 139 132 126 118 111 104 98 99 97 93 93 90 86 81 74 70 64 54 41 28 16
174 175 125 148 238 199 219 181 210 200 126 195 194 206 128 153 162 173 165 165 163 156 150 144 142 136 126 118 111 106 101 98 96 93 88 79 72 64 59 53 41 29 18 9
163 181 206 203 208 143 199 195 204 201 211 210 225 218 182 174 173 175 169 166 163 162 159 152 145 138 129 122 117 111 107 103 99 93 87 78 67 57 44 34 27 17 6 355
190 212 213 225 194 178 193 189 188 198 223 221 234 220 204 189 183 180 170 165 164 165 161 159 149 142 137 130 123 115 107 100 96 87 73 62 56 48 35 24 13 3 359 355
196 186 183 214 187 196 201 201 196 206 220 230 237 234 49 159 160 172 174 170 170 166 164 158 150 147 144 136 125 117 107 93 85 79 73 63 49 36 22 9 4 3 358 353
154 137 147 217 153 125 259 205 201 214 219 222 220 197 152 164 177 180 177 175 170 166 161 157 155 150 140 133 128 117 108 98 86 78 64 51 35 22 10 6 3 359 354 348
155 133 77 131 139 206 240 25 215 203 210 207 177 168 181 185 178 173 177 169 165 162 158 154 152 143 137 131 123 117 107 97 88 75 60 40 25 16 9 4 360 353 346 339
187 124 122 158 203 1 178 195 176 180 226 201 194 149 132 123 125 162 174 171 160 156 152 148 145 139 134 132 130 121 109 100 91 70 47 27 18 9 2 358 350 342 334 330
108 85 136 174 204 220 243 162 169 163 246 181 158 155 149 148 166 184 165 155 147 143 142 140 138 134 131 129 126 118 105 91 73 44 25 13 4 356 353 347 338 330 325 320
165 194 205 193 222 278 108 138 161 173 230 170 170 161 161 172 39 133 142 142 138 136 134 133 132 128 124 127 122 110 105 79 50 26 7 354 350 349 340 335 330 328 327 321
167 169 194 186 196 242 151 117 200 68 62 145 144 155 142 118 125 132 130 128 127 126 129 131 125 121 122 127 128 113 90 59 30 10 346 341 342 342 337 334 334 331 326 322
190 168 170 215 204 76 35 13 81 123 133 133 128 126 126 124 128 128 127 127 131 132 130 128 127 128 131 126 117 114 98 26 357 348 345 342 339 338 335 334 330 330 324 317
82 5 129 169 56 74 30 55 80 102 115 126 126 128 129 125 128 119 113 114 116 121 123 134 140 136 128 124 120 114 63 355 348 338 336 332 330 329 326 324 317 314 317 317
13 320 128 91 110 110 58 68 110 107 109 108 111 119 119 118 119 116 118 120 121 126 133 135 133 133 132 133 130 116 349 339 332 326 323 322 317 314 311 308 307 305 303 301
351 17 249 100 156 76 102 110 118 109 106 110 115 107 106 114 111 110 113 124 129 128 128 120 119 125 125 121 115 324 315 319 317 313 309 305 305 304 305 305 304 299 303 303